Miscellaneous Local Product
Issued by NWS Hastings, NE

Home | Current Version | Previous Version | Graphics & Text | Print | Product List | Glossary On
Versions: 1 2 3 4 5 6 7 8 9 10 11 12 13 14 15 16 17 18 19 20 21 22 23 24 25 26 27 28 29 30 31 32 33 34 35 36 37 38 39 40 41 42 43 44 45 46 47 48 49 50
000
AXUS43 KGID 200602
MISGRI

GID CWA HOURLY WEATHER ROUNDUP
NATIONAL WEATHER SERVICE HASTINGS NE
100 AM CDT MON OCT 20 2014

NOTE: "FAIR" INDICATES FEW OR NO CLOUDS BELOW 12,000 FEET WITH NO
SIGNIFICANT WEATHER AND/OR OBSTRUCTIONS TO VISIBILITY.

...SOUTH CENTRAL NEBRASKA...

CITY           SKY/WX    TMP DP  RH WIND       PRES   REMARKS
GRAND ISLAND   CLEAR     48  44  86 W6        30.03R
HASTINGS       CLEAR     50  44  80 W3        30.03R
KEARNEY        CLEAR     46  43  87 W8        30.05R
ORD            CLEAR     42  37  82 NW8       30.03R
YORK           CLEAR     46  45  93 W7        30.01R
AURORA         CLEAR     47  43  85 NW5       30.02R
LEXINGTON      CLEAR     42  40  90 W6        30.06R
HOLDREGE       CLEAR     43  40  89 CALM      30.05R
HEBRON         CLEAR     47  45  91 CALM      30.02R

...NEBRASKA PANHANDLE...

CITY           SKY/WX    TMP DP  RH WIND       PRES   REMARKS
CHADRON        CLEAR     41  38  89 SW6       30.10S
ALLIANCE       FAIR      36  32  85 W3        30.12R
SCOTTSBLUFF    CLEAR     47  36  65 E5        30.12S
SIDNEY         CLEAR     40  34  79 NW5       30.14S

...WESTERN AND NORTH CENTRAL NEBRASKA...

CITY           SKY/WX    TMP DP  RH WIND       PRES   REMARKS
VALENTINE      CLEAR     43  35  73 W6        30.08R
AINSWORTH      CLEAR     43  36  77 W3        30.07R
ONEILL         CLEAR     49  40  70 NW6       30.04R
BROKEN BOW     CLEAR     43  37  79 CALM      30.06R
IMPERIAL       CLEAR     47  38  71 NW3       30.10R
NORTH PLATTE   CLEAR     42  37  82 CALM      30.08R
MCCOOK         CLEAR     44  41  89 W3        30.07S

...EASTERN NEBRASKA...

CITY           SKY/WX    TMP DP  RH WIND       PRES   REMARKS
NORFOLK        CLEAR     50  41  71 W6        29.99R
SO SIOUX CITY  CLEAR     48  45  89 NW6       29.96R
TEKAMAH        CLEAR     47  43  86 NE5       29.95R
COLUMBUS       CLEAR     48  45  87 W6        30.00R
ALBION         CLEAR     43  38  82 NW5       30.01S
OMAHA EPPLEY   CLEAR     55  47  74 SE5       29.96R
OFFUTT AFB     CLEAR     46  46 100 W5        29.95S
MILLARD        CLEAR     51  48  87 CALM      29.96S
LINCOLN        CLEAR     52  46  80 S3        30.00S
NEBRASKA CITY  CLEAR     55  46  71 W12       29.98R
BEATRICE       CLEAR     50  46  86 CALM      30.00S
FALLS CITY     CLEAR     57  49  74 W7        29.98S

...NORTHERN KANSAS...

CITY           SKY/WX    TMP DP  RH WIND       PRES   REMARKS
GOODLAND       CLEAR     43  40  89 W7        30.12S
HILL CITY      CLEAR     46  43  89 CALM      30.05S
NORTON         CLEAR     43  37  81 W5        30.04
PHILLIPSBURG   CLEAR     46  45  93 W7        30.04S
SMITH CENTER   CLEAR     52  48  87 CALM      30.03S
BELOIT         CLEAR     46  46 100 CALM      30.01S
HAYS           CLEAR     52  45  76 NE6       30.03R
RUSSELL        CLEAR     52  49  89 E6        30.01S
CONCORDIA      CLEAR     55  51  86 W6        30.01S
SALINA         CLEAR     53  49  86 CALM      30.02S
TOPEKA         CLEAR     59  53  80 SW6       30.01S



USA.gov is the U.S. government's official web portal to all federal, state and local government web resources and services.